AirNav   Textron
 
 612 users online  

2GA1 Poole Farm Airport
Oxford, Georgia, USA

GOING TO OXFORD?


FAA INFORMATION EFFECTIVE 09 NOVEMBER 2017

Location

FAA Identifier: 2GA1
Lat/Long: 33-40-50.4070N / 083-51-09.6550W
33-40.840117N / 083-51.160917W
33.6806686 / -83.8526819
(estimated)
Elevation: 830 ft. / 253 m (estimated)
Variation: 02W (1985)
From city: 3 miles N of OXFORD, GA
Time zone: UTC -5 (UTC -4 during Daylight Saving Time)
Zip code: 30054

Airport Operations

Airport use: Private use. Permission required prior to landing
Activation date: 01/1975
Control tower: no
ARTCC: ATLANTA CENTER
FSS: MACON FLIGHT SERVICE STATION
Attendance: UNATNDD
Segmented circle: no

Airport Communications

WX AWOS-3 at CVC (2.9 nm S): 118.725 (770-385-7057)
WX AWOS-3PT at D73 (10 nm NE): 120.825 (678-635-3668)
WX AWOS-3PT at LZU (19 nm N): 132.275 (770-339-7753)

Nearby radio navigation aids

VOR radial/distance  VOR name  Freq  Var
PDKr123/25.1PEACHTREE VOR/DME116.6005W
ATLr089/29.3ATLANTA VORTAC116.9005W
AHNr239/30.8ATHENS VOR/DME109.6000E

 
NDB name  Hdg/Dist  Freq  Var  ID
ALCOVY314/4.737003WVOF ...- --- ..-.
MONROE245/7.239204WJNM .--- -. --
BARROW COUNTY226/20.140405WBMW -... -- .--
COMMERCE222/28.224406WDDA -.. -.. .-
FLOWERY BRANCH178/31.536503WFKV ..-. -.- ...-
BULLDOG246/35.522103WBJT -... .--- -
PECAT059/39.031605WFFC ..-. ..-. -.-.

Airport Services

Airframe service: NONE
Powerplant service: NONE

Runway Information

Runway 17/35

Dimensions: 2000 x 200 ft. / 610 x 61 m
Surface: turf
RUNWAY 17  RUNWAY 35
Traffic pattern: leftleft

Runway 12/30

Dimensions: 1400 x 80 ft. / 427 x 24 m
Surface: turf
RUNWAY 12  RUNWAY 30
Traffic pattern: leftleft
Obstructions: pline pole, 400 ft. from runwaynone

Airport Ownership and Management from official FAA records

Ownership: Privately-owned
Owner: IRENE B. POOLE
3151 LAVENTURE DRIVE
ATLANTA, GA 30341
Phone 770-457-7340
Manager: JOSEPH D. POOLE & ROBERT E. POOLE
3151 LAVENTURE DRIVE
ATLANTA, GA 30341
Phone 770-457-7340

Airport Operational Statistics

Aircraft based on the field: 1
Single engine airplanes: 1
    

Instrument Procedures

There are no published instrument procedures at 2GA1.

Some nearby airports with instrument procedures:

KCVC - Covington Municipal Airport (3 nm S)
D73 - Monroe-Walton County Airport (10 nm NE)
KLZU - Gwinnett County Airport-Briscoe Field (19 nm N)
52A - Madison Municipal Airport (20 nm E)
KWDR - Barrow County Airport (20 nm NE)
 
Loc | Ops | Rwys | IFR | FBO | Links
Com | Nav | Svcs | Stats | Notes


 
Area around 2GA1 (Poole Farm Airport)
 
Road maps at: MapQuest Bing Google
 
Aerial photo
WARNING: Photo may not be current or correct
Aerial photo of 2GA1 (Poole Farm Airport)
Do you have a better or more recent aerial photo of Poole Farm Airport that you would like to share? If so, please send us your photo.

 
Sectional chart

 
Airport distance calculator
Flying to Poole Farm Airport? Find the distance to fly.

From to 2GA1

Sunrise and sunset
Times for 23-Nov-2017
 Local
(UTC-5)
 Zulu
(UTC)
Morning civil twilight06:4911:49
Sunrise07:1612:16
Sunset17:2822:28
Evening civil twilight17:5522:55

Current date and time
Zulu (UTC)  23-Nov-2017 20:57:28
Local (UTC-5)  23-Nov-2017 15:57:28
 
METAR
KCVC 
3nm S 
232035Z AUTO 06004KT 10SM CLR 15/03 A2999 RMK AO2
KLZU 
19nm N 
231956Z VRB04KT 10SM FEW035 16/02 A3002 RMK AO2 SLP164 T01560017 $
TAF
KPDK 
25nm NW 
231726Z 2318/2418 07004KT P6SM SCT035 FM232300 00000KT P6SM SKC
KATL 
30nm W 
231942Z 2320/2424 08005KT P6SM SCT030 FM232300 05004KT P6SM SKC FM241500 11004KT P6SM SKC FM241900 20004KT P6SM SKC
KAHN 
31nm NE 
231726Z 2318/2418 07007KT P6SM SCT040 BKN200 FM232100 05003KT P6SM SKC
NOTAMs
Click for the latest NOTAMs
NOTAMs are issued by the DoD/FAA and will open in a separate window not controlled by AirNav.

 

 
 

Would you like to see your business listed on this page?

 If your business provides an interesting product or service to pilots, flight crews, aircraft, or users of the Poole Farm Airport, you should consider listing it here.  To start the listing process, click on the button below
 
Add a business
 

Other Pages about Poole Farm Airport

Update a link
 
Copyright © AirNav, LLC. All rights reserved. Privacy Policy  Contact